Location: Unspecified
(54.1780°N, 0.0000°E)
Time: 00:45:19
(UTC+00:00)

Vanguard 2 - Pass Details

Date: 17 June 2019
Orbit: 553 x 2938 km, 32.9° (Epoch: 18 August)

Event Time Altitude Azimuth Distance (km) Brightness Sun altitude
Rises 12:44:48 0° 246° (WSW) 4,615 11.8 58.1°
Reaches altitude 10° 12:48:13 10° 233° (SW) 3,979 11.8 57.9°
Maximum altitude 12:56:35 25° 184° (S) 3,636 12.0 57.5°
Drops below altitude 10° 13:07:47 10° 139° (SE) 5,434 12.1 56.7°
Sets 13:13:35 0° 128° (SE) 6,668 12.4 56.3°
